| time (UTC) | temp F | wind direction | speed MPH | gust MPH | rain 1hr in | rain 24hr in | rain mn in | humidity % | barometer mb |
| 20260905111017 | 79 | 90 | 1.0 | 2.0 | 0.00 | 0.00 | 0.00 | 57 | 1013.4 |
| 20260905110017 | 79 | 90 | 1.0 | 3.0 | 0.00 | 0.00 | 0.00 | 56 | 1013.3 |
| 20260905105015 | 80 | 113 | 3.0 | 4.0 | 0.00 | 0.00 | 0.00 | 54 | 1013.4 |
| 20260905104019 | 80 | 113 | 3.0 | 5.0 | 0.00 | 0.00 | 0.00 | 54 | 1013.4 |
| 20260905103015 | 80 | 113 | 2.0 | 5.0 | 0.00 | 0.00 | 0.00 | 55 | 1013.3 |
| 20260905102015 | 80 | 113 | 3.0 | 5.0 | 0.00 | 0.00 | 0.00 | 55 | 1013.4 |
| 20260905101015 | 80 | 113 | 3.0 | 5.0 | 0.00 | 0.00 | 0.00 | 54 | 1013.4 |
| 20260905100035 | 80 | 135 | 2.0 | 6.0 | 0.00 | 0.00 | 0.00 | 55 | 1013.4 |
| 20260905095015 | 79 | 135 | 1.0 | 3.0 | 0.00 | 0.00 | 0.00 | 57 | 1013.1 |
| 20260905094024 | 79 | 0.0 | 0.0 | 0.00 | 0.00 | 0.00 | 58 | 1013.0 | |
| 20260905093019 | 79 | 0.0 | 0.0 | 0.00 | 0.00 | 0.00 | 58 | 1013.1 | |
| 20260905092039 | 80 | 0.0 | 0.0 | 0.00 | 0.00 | 0.00 | 57 | 1013.2 | |
| 20260905091018 | 80 | 90 | 1.0 | 2.0 | 0.00 | 0.00 | 0.00 | 57 | 1013.2 |
| 20260905090018 | 80 | 90 | 1.0 | 2.0 | 0.00 | 0.00 | 0.00 | 56 | 1013.1 |
| 20260905085017 | 80 | 90 | 1.0 | 3.0 | 0.00 | 0.00 | 0.00 | 55 | 1013.3 |
| 20260905084037 | 81 | 0.0 | 1.0 | 0.00 | 0.00 | 0.00 | 54 | 1013.3 | |
| 20260905083017 | 81 | 113 | 2.0 | 3.0 | 0.00 | 0.00 | 0.00 | 53 | 1013.3 |
| 20260905082017 | 81 | 113 | 1.0 | 4.0 | 0.00 | 0.00 | 0.00 | 53 | 1013.3 |
| 20260905081021 | 81 | 0.0 | 0.0 | 0.00 | 0.00 | 0.00 | 52 | 1013.4 | |
| 20260905080037 | 82 | 0.0 | 0.0 | 0.00 | 0.00 | 0.00 | 51 | 1013.4 | |
| 20260905075017 | 82 | 0.0 | 0.0 | 0.00 | 0.00 | 0.00 | 51 | 1013.5 | |
| 20260905074017 | 82 | 0.0 | 0.0 | 0.00 | 0.00 | 0.00 | 49 | 1013.4 | |
| 20260905073037 | 83 | 0.0 | 0.0 | 0.00 | 0.00 | 0.00 | 48 | 1013.4 | |
| 20260905072039 | 83 | 0.0 | 0.0 | 0.00 | 0.00 | 0.00 | 46 | 1013.3 | |
| 20260905071018 | 84 | 0.0 | 0.0 | 0.00 | 0.00 | 0.00 | 45 | 1013.3 | |
| 20260905070037 | 84 | 0.0 | 0.0 | 0.00 | 0.00 | 0.00 | 45 | 1013.3 | |
| 20260905065016 | 84 | 0.0 | 0.0 | 0.00 | 0.00 | 0.00 | 44 | 1013.3 | |
| 20260905064018 | 85 | 0.0 | 0.0 | 0.00 | 0.00 | 0.00 | 43 | 1013.3 | |
| 20260905063016 | 85 | 203 | 2.0 | 3.0 | 0.00 | 0.00 | 0.00 | 42 | 1013.2 |
| 20260905062019 | 86 | 158 | 2.0 | 3.0 | 0.00 | 0.00 | 0.00 | 42 | 1013.1 |
| 20260905061038 | 86 | 203 | 2.0 | 4.0 | 0.00 | 0.00 | 0.00 | 41 | 1013.1 |
| 20260905060017 | 86 | 203 | 3.0 | 5.0 | 0.00 | 0.00 | 0.00 | 41 | 1013.1 |
| 20260905055016 | 86 | 203 | 2.0 | 4.0 | 0.00 | 0.00 | 0.00 | 42 | 1012.9 |
| 20260905054016 | 86 | 0.0 | 1.0 | 0.00 | 0.00 | 0.00 | 42 | 1012.9 | |
| 20260905053017 | 86 | 0.0 | 0.0 | 0.00 | 0.00 | 0.00 | 42 | 1012.7 | |
| 20260905052018 | 87 | 0.0 | 1.0 | 0.00 | 0.00 | 0.00 | 41 | 1012.6 | |
| 20260905051018 | 87 | 0.0 | 1.0 | 0.00 | 0.00 | 0.00 | 41 | 1012.6 | |
| 20260905050038 | 87 | 0.0 | 1.0 | 0.00 | 0.00 | 0.00 | 41 | 1012.5 | |
| 20260905045018 | 87 | 0.0 | 0.0 | 0.00 | 0.00 | 0.00 | 42 | 1012.4 | |
| 20260905044016 | 87 | 0.0 | 0.0 | 0.00 | 0.00 | 0.00 | 41 | 1012.3 | |
| 20260905043017 | 88 | 0.0 | 0.0 | 0.00 | 0.00 | 0.00 | 41 | 1012.3 | |
| 20260905042016 | 88 | 113 | 1.0 | 2.0 | 0.00 | 0.00 | 0.00 | 41 | 1012.3 |
| 20260905041016 | 89 | 0.0 | 0.0 | 0.00 | 0.00 | 0.00 | 41 | 1012.3 | |
| 20260905040019 | 90 | 0.0 | 0.0 | 0.00 | 0.00 | 0.00 | 38 | 1012.3 | |
| 20260905035016 | 90 | 0.0 | 0.0 | 0.00 | 0.00 | 0.00 | 38 | 1012.3 | |
| 20260905034017 | 91 | 0.0 | 0.0 | 0.00 | 0.00 | 0.00 | 36 | 1012.1 | |
| 20260905033018 | 92 | 0.0 | 0.0 | 0.00 | 0.00 | 0.00 | 35 | 1012.0 | |
| 20260905032019 | 92 | 135 | 1.0 | 2.0 | 0.00 | 0.00 | 0.00 | 35 | 1011.9 |
| 20260905031016 | 92 | 0.0 | 1.0 | 0.00 | 0.00 | 0.00 | 35 | 1011.7 | |
| 20260905030023 | 92 | 0.0 | 0.0 | 0.00 | 0.00 | 0.00 | 35 | 1011.5 | |
| 20260905025018 | 92 | 0.0 | 1.0 | 0.00 | 0.00 | 0.00 | 36 | 1011.5 | |
| 20260905024017 | 92 | 0.0 | 0.0 | 0.00 | 0.00 | 0.00 | 35 | 1011.3 | |
| 20260905023019 | 92 | 0.0 | 0.0 | 0.00 | 0.00 | 0.00 | 33 | 1011.0 | |
| 20260905022019 | 92 | 0.0 | 0.0 | 0.00 | 0.00 | 0.00 | 35 | 1011.0 | |
| 20260905021016 | 93 | 0.0 | 1.0 | 0.00 | 0.00 | 0.00 | 33 | 1011.0 | |
| 20260905020016 | 93 | 0.0 | 0.0 | 0.00 | 0.00 | 0.00 | 31 | 1010.9 | |
| 20260905015017 | 94 | 0.0 | 0.0 | 0.00 | 0.00 | 0.00 | 31 | 1010.8 | |
| 20260905014016 | 94 | 0.0 | 0.0 | 0.00 | 0.00 | 0.00 | 30 | 1010.7 | |
| 20260905013016 | 95 | 0.0 | 0.0 | 0.00 | 0.00 | 0.00 | 29 | 1010.8 | |
| 20260905012037 | 95 | 0.0 | 1.0 | 0.00 | 0.00 | 0.00 | 29 | 1010.7 | |
| 20260905011016 | 95 | 0.0 | 0.0 | 0.00 | 0.00 | 0.00 | 29 | 1010.7 | |
| 20260905010019 | 96 | 0.0 | 0.0 | 0.00 | 0.00 | 0.00 | 28 | 1010.7 | |
| 20260905005016 | 98 | 0.0 | 1.0 | 0.00 | 0.00 | 0.00 | 27 | 1010.6 | |
| 20260905004038 | 99 | 158 | 1.0 | 4.0 | 0.00 | 0.00 | 0.00 | 26 | 1010.7 |
| 20260905003017 | 98 | 0.0 | 0.0 | 0.00 | 0.00 | 0.00 | 27 | 1010.7 | |
| 20260905002017 | 97 | 0.0 | 5.0 | 0.00 | 0.00 | 0.00 | 27 | 1010.8 | |
| 20260905001017 | 97 | 248 | 3.0 | 8.0 | 0.00 | 0.00 | 0.00 | 27 | 1010.8 |
| 20260905000017 | 98 | 225 | 5.0 | 10.0 | 0.00 | 0.00 | 0.00 | 26 | 1010.8 |
| 20260904235036 | 98 | 248 | 3.0 | 6.0 | 0.00 | 0.00 | 0.00 | 26 | 1010.9 |
| 20260904234016 | 98 | 0.0 | 4.0 | 0.00 | 0.00 | 0.00 | 27 | 1011.0 | |
| 20260904233016 | 98 | 270 | 1.0 | 6.0 | 0.00 | 0.00 | 0.00 | 26 | 1011.0 |
| 20260904232020 | 98 | 248 | 4.0 | 11.0 | 0.00 | 0.00 | 0.00 | 26 | 1011.1 |
| 20260904231037 | 98 | 180 | 5.0 | 10.0 | 0.00 | 0.00 | 0.00 | 26 | 1011.2 |
| 20260904230018 | 98 | 203 | 7.0 | 13.0 | 0.00 | 0.00 | 0.00 | 26 | 1011.2 |
| 20260904225037 | 98 | 248 | 7.0 | 13.0 | 0.00 | 0.00 | 0.00 | 26 | 1011.3 |
| 20260904224016 | 98 | 248 | 7.0 | 13.0 | 0.00 | 0.00 | 0.00 | 26 | 1011.4 |
| 20260904223018 | 98 | 248 | 4.0 | 9.0 | 0.00 | 0.00 | 0.00 | 25 | 1011.4 |
| 20260904222016 | 98 | 135 | 4.0 | 8.0 | 0.00 | 0.00 | 0.00 | 27 | 1011.5 |
| 20260904221017 | 98 | 270 | 4.0 | 10.0 | 0.00 | 0.00 | 0.00 | 27 | 1011.6 |
| 20260904220039 | 98 | 248 | 5.0 | 12.0 | 0.00 | 0.00 | 0.00 | 25 | 1011.7 |
| 20260904215017 | 98 | 0.0 | 0.0 | 0.00 | 0.00 | 0.00 | 33 | 1012.0 | |
| 20260904214016 | 97 | 68 | 4.0 | 7.0 | 0.00 | 0.00 | 0.00 | 33 | 1011.9 |
| 20260904213017 | 96 | 135 | 3.0 | 7.0 | 0.00 | 0.00 | 0.00 | 34 | 1012.1 |
| 20260904212016 | 96 | 113 | 1.0 | 5.0 | 0.00 | 0.00 | 0.00 | 35 | 1012.2 |
| 20260904211019 | 96 | 338 | 1.0 | 7.0 | 0.00 | 0.00 | 0.00 | 35 | 1012.3 |
| 20260904210036 | 97 | 270 | 2.0 | 4.0 | 0.00 | 0.00 | 0.00 | 35 | 1012.6 |
| 20260904205016 | 98 | 203 | 3.0 | 12.0 | 0.00 | 0.00 | 0.00 | 34 | 1012.8 |
| 20260904204017 | 98 | 158 | 5.0 | 10.0 | 0.00 | 0.00 | 0.00 | 36 | 1012.9 |
| 20260904203018 | 96 | 0.0 | 1.0 | 0.00 | 0.00 | 0.00 | 37 | 1012.9 | |
| 20260904202016 | 95 | 248 | 3.0 | 7.0 | 0.00 | 0.00 | 0.00 | 38 | 1013.1 |
| 20260904201016 | 95 | 135 | 4.0 | 7.0 | 0.00 | 0.00 | 0.00 | 38 | 1013.2 |
| 20260904200016 | 94 | 135 | 2.0 | 6.0 | 0.00 | 0.00 | 0.00 | 40 | 1013.2 |
| 20260904195038 | 96 | 113 | 3.0 | 7.0 | 0.00 | 0.00 | 0.00 | 39 | 1013.4 |
| 20260904194036 | 96 | 158 | 3.0 | 10.0 | 0.00 | 0.00 | 0.00 | 40 | 1013.6 |
| 20260904193015 | 95 | 225 | 2.0 | 6.0 | 0.00 | 0.00 | 0.00 | 41 | 1013.7 |
| 20260904192016 | 95 | 225 | 4.0 | 7.0 | 0.00 | 0.00 | 0.00 | 40 | 1013.9 |
| 20260904191017 | 94 | 0.0 | 5.0 | 0.00 | 0.00 | 0.00 | 41 | 1013.9 | |
| 20260904190017 | 95 | 135 | 4.0 | 9.0 | 0.00 | 0.00 | 0.00 | 42 | 1014.1 |
| 20260904185016 | 94 | 203 | 4.0 | 9.0 | 0.00 | 0.00 | 0.00 | 42 | 1014.2 |
| 20260904184016 | 93 | 158 | 6.0 | 11.0 | 0.00 | 0.00 | 0.00 | 43 | 1014.4 |
| 20260904183015 | 93 | 158 | 4.0 | 11.0 | 0.00 | 0.00 | 0.00 | 44 | 1014.5 |
| 20260904182019 | 93 | 135 | 5.0 | 11.0 | 0.00 | 0.00 | 0.00 | 43 | 1014.7 |
| 20260904181017 | 92 | 135 | 4.0 | 10.0 | 0.00 | 0.00 | 0.00 | 46 | 1014.7 |
| 20260904180019 | 92 | 203 | 5.0 | 9.0 | 0.00 | 0.00 | 0.00 | 46 | 1014.8 |
| 20260904175017 | 92 | 135 | 6.0 | 10.0 | 0.00 | 0.00 | 0.00 | 46 | 1014.9 |
| 20260904174038 | 92 | 158 | 5.0 | 11.0 | 0.00 | 0.00 | 0.00 | 47 | 1015.1 |
| 20260904173017 | 91 | 158 | 5.0 | 9.0 | 0.00 | 0.00 | 0.00 | 49 | 1015.1 |
| 20260904172036 | 91 | 158 | 4.0 | 10.0 | 0.00 | 0.00 | 0.00 | 50 | 1015.0 |
| 20260904171015 | 89 | 135 | 5.0 | 10.0 | 0.00 | 0.00 | 0.00 | 50 | 1015.1 |
| 20260904170016 | 89 | 135 | 5.0 | 10.0 | 0.00 | 0.00 | 0.00 | 53 | 1015.1 |
| 20260904165036 | 88 | 135 | 6.0 | 11.0 | 0.00 | 0.00 | 0.00 | 54 | 1015.1 |
| 20260904164015 | 88 | 135 | 6.0 | 11.0 | 0.00 | 0.00 | 0.00 | 55 | 1015.0 |
| 20260904163015 | 87 | 135 | 6.0 | 11.0 | 0.00 | 0.00 | 0.00 | 55 | 1014.9 |
| 20260904162015 | 87 | 135 | 6.0 | 11.0 | 0.00 | 0.00 | 0.00 | 55 | 1015.0 |
| 20260904161015 | 87 | 135 | 6.0 | 11.0 | 0.00 | 0.00 | 0.00 | 56 | 1014.9 |
| 20260904160040 | 87 | 158 | 6.0 | 12.0 | 0.00 | 0.00 | 0.00 | 56 | 1014.9 |
| 20260904155016 | 87 | 158 | 5.0 | 11.0 | 0.00 | 0.00 | 0.00 | 56 | 1014.8 |
| 20260904154015 | 86 | 135 | 5.0 | 9.0 | 0.00 | 0.00 | 0.00 | 58 | 1014.7 |
| 20260904153015 | 86 | 135 | 7.0 | 11.0 | 0.00 | 0.00 | 0.00 | 59 | 1014.5 |
| 20260904152019 | 86 | 135 | 6.0 | 10.0 | 0.00 | 0.00 | 0.00 | 59 | 1014.6 |
| 20260904151015 | 85 | 135 | 6.0 | 11.0 | 0.00 | 0.00 | 0.00 | 59 | 1014.4 |
| 20260904150016 | 85 | 135 | 5.0 | 11.0 | 0.00 | 0.00 | 0.00 | 60 | 1014.4 |
| 20260904145036 | 84 | 135 | 4.0 | 8.0 | 0.00 | 0.00 | 0.00 | 62 | 1014.5 |
| 20260904144015 | 84 | 135 | 4.0 | 7.0 | 0.00 | 0.00 | 0.00 | 63 | 1014.5 |
| 20260904143020 | 83 | 135 | 4.0 | 7.0 | 0.00 | 0.00 | 0.00 | 63 | 1014.4 |
| 20260904142017 | 83 | 135 | 4.0 | 8.0 | 0.00 | 0.00 | 0.00 | 64 | 1014.2 |
| 20260904141017 | 82 | 113 | 3.0 | 6.0 | 0.00 | 0.00 | 0.00 | 66 | 1014.1 |
| 20260904140017 | 81 | 113 | 3.0 | 5.0 | 0.00 | 0.00 | 0.00 | 68 | 1013.9 |
| 20260904135017 | 80 | 113 | 2.0 | 4.0 | 0.00 | 0.00 | 0.00 | 69 | 1013.6 |
| 20260904134017 | 79 | 113 | 3.0 | 5.0 | 0.00 | 0.00 | 0.00 | 70 | 1013.5 |
| 20260904133017 | 79 | 113 | 3.0 | 4.0 | 0.00 | 0.00 | 0.00 | 70 | 1013.3 |
| 20260904132015 | 79 | 135 | 3.0 | 5.0 | 0.00 | 0.00 | 0.00 | 71 | 1013.5 |
| 20260904131016 | 79 | 135 | 2.0 | 4.0 | 0.00 | 0.00 | 0.00 | 71 | 1013.3 |
| 20260904130016 | 79 | 113 | 2.0 | 4.0 | 0.00 | 0.00 | 0.00 | 71 | 1013.2 |
| 20260904125017 | 78 | 135 | 1.0 | 3.0 | 0.00 | 0.00 | 0.00 | 72 | 1013.0 |
| 20260904124017 | 78 | 0.0 | 2.0 | 0.00 | 0.00 | 0.00 | 73 | 1013.0 | |
| 20260904123016 | 79 | 113 | 2.0 | 4.0 | 0.00 | 0.00 | 0.00 | 72 | 1013.0 |
| 20260904122015 | 79 | 0.0 | 3.0 | 0.00 | 0.00 | 0.00 | 72 | 1013.0 | |
| 20260904121017 | 79 | 113 | 2.0 | 5.0 | 0.00 | 0.00 | 0.00 | 72 | 1013.0 |
| 20260904120016 | 79 | 113 | 3.0 | 5.0 | 0.00 | 0.00 | 0.00 | 71 | 1012.9 |
| 20260904115017 | 80 | 135 | 3.0 | 6.0 | 0.00 | 0.00 | 0.00 | 71 | 1013.0 |
| 20260904114016 | 80 | 135 | 4.0 | 7.0 | 0.00 | 0.00 | 0.00 | 70 | 1012.9 |
| 20260904113035 | 80 | 113 | 4.0 | 7.0 | 0.00 | 0.00 | 0.00 | 70 | 1013.1 |
| 20260904112017 | 80 | 90 | 4.0 | 7.0 | 0.00 | 0.00 | 0.00 | 70 | 1013.1 |